Time,TemperatureF,DewpointF,PressureIn,WindDirection,WindDirectionDegrees,WindSpeedMPH,WindSpeedGustMPH,Humidity,HourlyPrecipIn,Conditions,Clouds,dailyrainin,SoftwareType,DateUTC
2013-06-25 00:01:00,77.5,75.6,30.16,NNW,327,0.0,0.0,94,0.00,,,0.00,Wunderground v.1.15,2013-06-25 04:01:00,
2013-06-25 00:02:00,77.4,75.5,30.16,NNW,327,0.0,0.0,94,0.00,,,0.00,Wunderground v.1.15,2013-06-25 04:02:00,
2013-06-25 00:04:00,77.4,75.5,30.16,NNW,327,0.0,0.0,94,0.00,,,0.00,Wunderground v.1.15,2013-06-25 04:04:00,
2013-06-25 00:05:00,77.4,75.5,30.16,NNW,327,0.0,0.0,94,0.00,,,0.00,Wunderground v.1.15,2013-06-25 04:05:00,
2013-06-25 00:06:00,77.4,75.5,30.16,NNW,327,0.0,0.0,94,0.00,,,0.00,Wunderground v.1.15,2013-06-25 04:06:00,
2013-06-25 00:11:00,77.3,75.4,30.16,NNW,327,0.0,0.0,94,0.00,,,0.00,Wunderground v.1.15,2013-06-25 04:11:00,
2013-06-25 00:16:00,77.3,75.4,30.16,NNW,327,0.0,0.0,94,0.00,,,0.00,Wunderground v.1.15,2013-06-25 04:16:00,
2013-06-25 00:22:00,77.3,75.4,30.16,NW,326,0.0,0.0,94,0.00,,,0.00,Wunderground v.1.15,2013-06-25 04:22:00,
2013-06-25 00:27:00,77.4,75.5,30.16,NNW,327,0.0,0.0,94,0.00,,,0.00,Wunderground v.1.15,2013-06-25 04:27:00,
2013-06-25 00:32:00,77.4,75.5,30.16,NNW,327,0.0,0.0,94,0.00,,,0.00,Wunderground v.1.15,2013-06-25 04:32:00,
2013-06-25 00:38:00,77.4,75.5,30.16,NNW,327,0.0,0.0,94,0.00,,,0.00,Wunderground v.1.15,2013-06-25 04:38:00,
2013-06-25 00:43:00,77.4,75.5,30.15,NNW,327,0.0,0.0,94,0.00,,,0.00,Wunderground v.1.15,2013-06-25 04:43:00,
2013-06-25 00:48:00,77.3,75.4,30.15,NNW,327,0.0,0.0,94,0.00,,,0.00,Wunderground v.1.15,2013-06-25 04:48:00,
2013-06-25 00:54:00,77.3,75.4,30.15,NW,326,0.0,0.0,94,0.00,,,0.00,Wunderground v.1.15,2013-06-25 04:54:00,
2013-06-25 00:59:00,77.3,75.4,30.15,NW,326,0.0,0.0,94,0.00,,,0.00,Wunderground v.1.15,2013-06-25 04:59:00,
2013-06-25 01:05:00,77.3,75.4,30.15,NNW,327,0.0,1.0,94,0.00,,,0.00,Wunderground v.1.15,2013-06-25 05:05:00,
2013-06-25 01:11:00,77.4,75.5,30.15,NW,326,0.0,0.0,94,0.00,,,0.00,Wunderground v.1.15,2013-06-25 05:11:00,
2013-06-25 01:16:00,77.3,75.4,30.15,NNW,327,0.0,0.0,94,0.00,,,0.00,Wunderground v.1.15,2013-06-25 05:16:00,
2013-06-25 01:21:00,77.3,74.8,30.15,South,176,0.0,2.0,92,0.00,,,0.00,Wunderground v.1.15,2013-06-25 05:21:00,
2013-06-25 01:27:00,77.3,74.1,30.14,South,181,1.0,4.0,90,0.00,,,0.00,Wunderground v.1.15,2013-06-25 05:27:00,
2013-06-25 01:32:00,77.3,74.1,30.14,South,172,1.0,1.0,90,0.00,,,0.00,Wunderground v.1.15,2013-06-25 05:32:00,
2013-06-25 01:37:00,77.4,73.9,30.14,South,178,0.0,1.0,89,0.00,,,0.00,Wunderground v.1.15,2013-06-25 05:37:00,
2013-06-25 01:43:00,77.4,73.9,30.13,South,178,0.0,0.0,89,0.00,,,0.00,Wunderground v.1.15,2013-06-25 05:43:00,
2013-06-25 01:48:00,77.5,74.0,30.13,South,178,0.0,0.0,89,0.00,,,0.00,Wunderground v.1.15,2013-06-25 05:48:00,
2013-06-25 01:53:00,77.5,73.7,30.13,ESE,109,1.0,4.0,88,0.00,,,0.00,Wunderground v.1.15,2013-06-25 05:53:00,
2013-06-25 01:59:00,77.6,73.8,30.13,ESE,110,1.0,4.0,88,0.00,,,0.00,Wunderground v.1.15,2013-06-25 05:59:00,
2013-06-25 02:04:00,77.7,73.5,30.13,ESE,113,0.0,1.0,87,0.00,,,0.00,Wunderground v.1.15,2013-06-25 06:04:00,
2013-06-25 02:09:00,77.9,74.1,30.13,East,89,0.0,0.0,88,0.00,,,0.00,Wunderground v.1.15,2013-06-25 06:09:00,
2013-06-25 02:15:00,78.0,73.8,30.13,ESE,103,0.0,0.0,87,0.00,,,0.00,Wunderground v.1.15,2013-06-25 06:15:00,
2013-06-25 02:20:00,78.0,73.8,30.14,South,178,0.0,0.0,87,0.00,,,0.00,Wunderground v.1.15,2013-06-25 06:20:00,
2013-06-25 02:25:00,78.1,74.3,30.14,South,178,0.0,0.0,88,0.00,,,0.00,Wunderground v.1.15,2013-06-25 06:25:00,
2013-06-25 02:31:00,78.1,74.3,30.14,South,178,0.0,0.0,88,0.00,,,0.00,Wunderground v.1.15,2013-06-25 06:31:00,
2013-06-25 02:36:00,78.1,74.3,30.14,South,178,0.0,0.0,88,0.00,,,0.00,Wunderground v.1.15,2013-06-25 06:36:00,
2013-06-25 02:41:00,78.1,74.3,30.13,South,171,0.0,0.0,88,0.00,,,0.00,Wunderground v.1.15,2013-06-25 06:41:00,
2013-06-25 02:47:00,78.1,74.3,30.13,SSE,158,0.0,3.0,88,0.00,,,0.00,Wunderground v.1.15,2013-06-25 06:47:00,
2013-06-25 02:52:00,78.1,74.3,30.12,SSE,165,1.0,1.0,88,0.00,,,0.00,Wunderground v.1.15,2013-06-25 06:52:00,
2013-06-25 02:57:00,78.1,73.9,30.12,SE,144,0.0,1.0,87,0.00,,,0.00,Wunderground v.1.15,2013-06-25 06:57:00,
2013-06-25 03:02:00,78.1,73.9,30.12,SSE,163,0.0,4.0,87,0.00,,,0.00,Wunderground v.1.15,2013-06-25 07:02:00,
2013-06-25 03:08:00,78.2,74.0,30.12,SSE,164,0.0,4.0,87,0.00,,,0.00,Wunderground v.1.15,2013-06-25 07:08:00,
2013-06-25 03:13:00,78.2,74.0,30.12,SSE,155,0.0,0.0,87,0.00,,,0.00,Wunderground v.1.15,2013-06-25 07:13:00,
2013-06-25 03:19:00,78.2,74.0,30.12,SSE,155,0.0,0.0,87,0.00,,,0.00,Wunderground v.1.15,2013-06-25 07:19:00,
2013-06-25 03:24:00,78.2,74.0,30.11,SSE,159,0.0,0.0,87,0.00,,,0.00,Wunderground v.1.15,2013-06-25 07:24:00,
2013-06-25 03:29:00,78.2,74.0,30.11,SSE,161,0.0,2.0,87,0.00,,,0.00,Wunderground v.1.15,2013-06-25 07:29:00,
2013-06-25 03:34:00,78.1,73.9,30.11,SSE,160,0.0,0.0,87,0.00,,,0.00,Wunderground v.1.15,2013-06-25 07:34:00,
2013-06-25 03:40:00,78.0,74.2,30.11,SSE,160,0.0,0.0,88,0.00,,,0.00,Wunderground v.1.15,2013-06-25 07:40:00,
2013-06-25 03:46:00,78.0,73.8,30.10,SSE,161,0.0,0.0,87,0.00,,,0.00,Wunderground v.1.15,2013-06-25 07:46:00,
2013-06-25 03:51:00,77.9,73.7,30.10,SSE,165,0.0,0.0,87,0.00,,,0.00,Wunderground v.1.15,2013-06-25 07:51:00,
2013-06-25 03:57:00,77.9,74.1,30.10,SSE,165,0.0,0.0,88,0.00,,,0.00,Wunderground v.1.15,2013-06-25 07:57:00,
2013-06-25 04:02:00,77.9,74.1,30.10,South,173,0.0,5.0,88,0.00,,,0.00,Wunderground v.1.15,2013-06-25 08:02:00,
2013-06-25 04:07:00,77.8,74.0,30.10,South,173,0.0,5.0,88,0.00,,,0.00,Wunderground v.1.15,2013-06-25 08:07:00,
2013-06-25 04:13:00,77.8,74.0,30.10,South,173,0.0,0.0,88,0.00,,,0.00,Wunderground v.1.15,2013-06-25 08:13:00,
2013-06-25 04:18:00,77.7,73.9,30.10,SSE,167,1.0,2.0,88,0.00,,,0.00,Wunderground v.1.15,2013-06-25 08:18:00,
2013-06-25 04:24:00,77.7,73.9,30.09,South,169,1.0,1.0,88,0.00,,,0.00,Wunderground v.1.15,2013-06-25 08:24:00,
2013-06-25 04:29:00,77.6,73.8,30.09,SSE,168,1.0,2.0,88,0.00,,,0.00,Wunderground v.1.15,2013-06-25 08:29:00,
2013-06-25 04:34:00,77.6,73.8,30.09,South,169,1.0,1.0,88,0.00,,,0.00,Wunderground v.1.15,2013-06-25 08:34:00,
2013-06-25 04:39:00,77.6,74.1,30.09,SSE,167,1.0,1.0,89,0.00,,,0.00,Wunderground v.1.15,2013-06-25 08:39:00,
2013-06-25 04:45:00,77.6,74.1,30.09,ESE,105,1.0,1.0,89,0.00,,,0.00,Wunderground v.1.15,2013-06-25 08:45:00,
2013-06-25 04:50:00,77.6,74.1,30.09,SSW,197,1.0,4.0,89,0.00,,,0.00,Wunderground v.1.15,2013-06-25 08:50:00,
2013-06-25 04:55:00,77.6,74.1,30.09,SE,139,1.0,4.0,89,0.00,,,0.00,Wunderground v.1.15,2013-06-25 08:55:00,
2013-06-25 05:00:00,77.5,74.0,30.09,SE,141,1.0,4.0,89,0.00,,,0.00,Wunderground v.1.15,2013-06-25 09:00:00,
2013-06-25 05:06:00,77.5,74.3,30.10,SE,141,0.0,4.0,90,0.00,,,0.00,Wunderground v.1.15,2013-06-25 09:06:00,
2013-06-25 05:11:00,77.5,74.3,30.10,SE,138,0.0,0.0,90,0.00,,,0.00,Wunderground v.1.15,2013-06-25 09:11:00,
2013-06-25 05:17:00,77.4,74.2,30.10,SE,138,0.0,0.0,90,0.00,,,0.00,Wunderground v.1.15,2013-06-25 09:17:00,
2013-06-25 05:22:00,77.4,74.2,30.10,SE,138,0.0,0.0,90,0.00,,,0.00,Wunderground v.1.15,2013-06-25 09:22:00,
2013-06-25 05:27:00,77.3,74.1,30.10,SE,138,0.0,0.0,90,0.00,,,0.00,Wunderground v.1.15,2013-06-25 09:27:00,
2013-06-25 05:33:00,77.3,74.1,30.10,SE,138,0.0,0.0,90,0.00,,,0.00,Wunderground v.1.15,2013-06-25 09:33:00,
2013-06-25 05:38:00,77.2,74.0,30.11,SE,139,0.0,2.0,90,0.00,,,0.00,Wunderground v.1.15,2013-06-25 09:38:00,
2013-06-25 05:44:00,77.2,74.4,30.10,SE,140,1.0,1.0,91,0.00,,,0.00,Wunderground v.1.15,2013-06-25 09:44:00,
2013-06-25 05:49:00,77.2,74.4,30.11,SE,140,0.0,1.0,91,0.00,,,0.00,Wunderground v.1.15,2013-06-25 09:49:00,
2013-06-25 05:54:00,77.1,74.3,30.11,SE,140,0.0,0.0,91,0.00,,,0.00,Wunderground v.1.15,2013-06-25 09:54:00,
2013-06-25 05:59:00,77.1,74.3,30.11,SE,140,0.0,0.0,91,0.00,,,0.00,Wunderground v.1.15,2013-06-25 09:59:00,
2013-06-25 06:05:00,77.1,74.3,30.11,SE,140,0.0,4.0,91,0.00,,,0.00,Wunderground v.1.15,2013-06-25 10:05:00,
2013-06-25 06:10:00,77.0,74.2,30.11,SE,140,0.0,0.0,91,0.00,,,0.00,Wunderground v.1.15,2013-06-25 10:10:00,
2013-06-25 06:16:00,77.0,74.2,30.11,SE,140,0.0,0.0,91,0.00,,,0.00,Wunderground v.1.15,2013-06-25 10:16:00,
2013-06-25 06:21:00,76.9,74.1,30.11,SE,140,0.0,0.0,91,0.00,,,0.00,Wunderground v.1.15,2013-06-25 10:21:00,
2013-06-25 06:26:00,76.9,74.1,30.11,SE,140,0.0,0.0,91,0.00,,,0.00,Wunderground v.1.15,2013-06-25 10:26:00,
2013-06-25 06:31:00,76.9,74.1,30.11,SE,140,0.0,0.0,91,0.00,,,0.00,Wunderground v.1.15,2013-06-25 10:31:00,
2013-06-25 06:37:00,76.8,74.0,30.11,SE,140,0.0,0.0,91,0.00,,,0.00,Wunderground v.1.15,2013-06-25 10:37:00,
2013-06-25 06:42:00,76.7,74.2,30.11,SE,140,0.0,0.0,92,0.00,,,0.00,Wunderground v.1.15,2013-06-25 10:42:00,
2013-06-25 06:47:00,76.7,74.2,30.11,SE,140,0.0,0.0,92,0.00,,,0.00,Wunderground v.1.15,2013-06-25 10:47:00,
2013-06-25 06:53:00,76.7,74.2,30.11,SE,140,0.0,0.0,92,0.00,,,0.00,Wunderground v.1.15,2013-06-25 10:53:00,
2013-06-25 06:58:00,76.6,74.1,30.11,SE,140,0.0,0.0,92,0.00,,,0.00,Wunderground v.1.15,2013-06-25 10:58:00,
2013-06-25 07:03:00,76.6,74.1,30.11,SE,140,0.0,0.0,92,0.00,,,0.00,Wunderground v.1.15,2013-06-25 11:03:00,
2013-06-25 07:09:00,76.7,74.2,30.11,SE,140,0.0,0.0,92,0.00,,,0.00,Wunderground v.1.15,2013-06-25 11:09:00,
2013-06-25 07:14:00,76.7,74.2,30.11,SE,140,0.0,0.0,92,0.00,,,0.00,Wunderground v.1.15,2013-06-25 11:14:00,
2013-06-25 07:19:00,76.7,74.2,30.11,SE,140,0.0,0.0,92,0.00,,,0.00,Wunderground v.1.15,2013-06-25 11:19:00,
2013-06-25 07:25:00,76.8,74.6,30.11,SE,140,0.0,0.0,93,0.00,,,0.00,Wunderground v.1.15,2013-06-25 11:25:00,
2013-06-25 07:30:00,76.9,74.7,30.11,SE,140,0.0,0.0,93,0.00,,,0.00,Wunderground v.1.15,2013-06-25 11:30:00,
2013-06-25 07:35:00,77.0,74.8,30.12,SE,140,0.0,0.0,93,0.00,,,0.00,Wunderground v.1.15,2013-06-25 11:35:00,
2013-06-25 07:41:00,77.2,75.0,30.12,SE,140,0.0,0.0,93,0.00,,,0.00,Wunderground v.1.15,2013-06-25 11:41:00,
2013-06-25 07:46:00,77.4,75.2,30.12,SE,139,0.0,2.0,93,0.00,,,0.00,Wunderground v.1.15,2013-06-25 11:46:00,
2013-06-25 07:51:00,77.6,75.1,30.12,SE,139,0.0,1.0,92,0.00,,,0.00,Wunderground v.1.15,2013-06-25 11:51:00,
2013-06-25 07:57:00,77.8,75.0,30.13,SE,133,1.0,5.0,91,0.00,,,0.00,Wunderground v.1.15,2013-06-25 11:57:00,
2013-06-25 08:02:00,78.1,74.9,30.13,SE,132,1.0,1.0,90,0.00,,,0.00,Wunderground v.1.15,2013-06-25 12:02:00,
2013-06-25 08:08:00,78.3,75.1,30.13,SE,132,0.0,1.0,90,0.00,,,0.00,Wunderground v.1.15,2013-06-25 12:08:00,
2013-06-25 08:13:00,78.7,75.2,30.13,SE,130,0.0,2.0,89,0.00,,,0.00,Wunderground v.1.15,2013-06-25 12:13:00,
2013-06-25 08:18:00,79.2,75.3,30.14,ESE,123,1.0,2.0,88,0.00,,,0.00,Wunderground v.1.15,2013-06-25 12:18:00,
2013-06-25 08:24:00,79.7,75.8,30.14,ESE,123,1.0,1.0,88,0.00,,,0.00,Wunderground v.1.15,2013-06-25 12:24:00,
2013-06-25 08:29:00,80.2,75.3,30.14,ESE,113,0.0,2.0,85,0.00,,,0.00,Wunderground v.1.15,2013-06-25 12:29:00,
2013-06-25 08:34:00,80.6,76.0,30.14,ESE,113,1.0,1.0,86,0.00,,,0.00,Wunderground v.1.15,2013-06-25 12:34:00,
2013-06-25 08:39:00,81.1,76.2,30.14,ESE,113,0.0,0.0,85,0.00,,,0.00,Wunderground v.1.15,2013-06-25 12:39:00,
2013-06-25 08:45:00,81.5,75.5,30.14,ESE,120,0.0,2.0,82,0.00,,,0.00,Wunderground v.1.15,2013-06-25 12:45:00,
2013-06-25 08:50:00,81.8,75.8,30.14,SSW,193,0.0,1.0,82,0.00,,,0.00,Wunderground v.1.15,2013-06-25 12:50:00,
2013-06-25 08:55:00,82.0,75.6,30.14,South,183,1.0,1.0,81,0.00,,,0.00,Wunderground v.1.15,2013-06-25 12:55:00,
2013-06-25 09:01:00,82.4,75.6,30.14,SSW,205,1.0,5.0,80,0.00,,,0.00,Wunderground v.1.15,2013-06-25 13:01:00,
2013-06-25 09:06:00,82.7,75.5,30.14,SSE,161,0.0,5.0,79,0.00,,,0.00,Wunderground v.1.15,2013-06-25 13:06:00,
2013-06-25 09:12:00,82.9,75.7,30.15,SSE,157,0.0,1.0,79,0.00,,,0.00,Wunderground v.1.15,2013-06-25 13:12:00,
2013-06-25 09:17:00,83.3,75.7,30.15,ESE,102,0.0,2.0,78,0.00,,,0.00,Wunderground v.1.15,2013-06-25 13:17:00,
2013-06-25 09:22:00,83.7,75.7,30.15,ESE,113,0.0,1.0,77,0.00,,,0.00,Wunderground v.1.15,2013-06-25 13:22:00,
2013-06-25 09:27:00,84.1,75.7,30.15,SE,138,0.0,1.0,76,0.00,,,0.00,Wunderground v.1.15,2013-06-25 13:27:00,
2013-06-25 09:33:00,84.4,75.2,30.15,ESE,117,1.0,1.0,74,0.00,,,0.00,Wunderground v.1.15,2013-06-25 13:33:00,
2013-06-25 09:38:00,84.7,75.1,30.15,ESE,117,0.0,1.0,73,0.00,,,0.00,Wunderground v.1.15,2013-06-25 13:38:00,
2013-06-25 09:44:00,85.0,75.4,30.15,ESE,115,0.0,2.0,73,0.00,,,0.00,Wunderground v.1.15,2013-06-25 13:44:00,
2013-06-25 09:49:00,85.3,75.2,30.15,ESE,114,0.0,2.0,72,0.00,,,0.00,Wunderground v.1.15,2013-06-25 13:49:00,
2013-06-25 09:54:00,85.5,74.6,30.15,ESE,111,0.0,2.0,70,0.00,,,0.00,Wunderground v.1.15,2013-06-25 13:54:00,
2013-06-25 10:00:00,85.4,74.9,30.15,South,171,1.0,1.0,71,0.00,,,0.00,Wunderground v.1.15,2013-06-25 14:00:00,
2013-06-25 10:05:00,85.4,74.5,30.15,ENE,61,1.0,4.0,70,0.00,,,0.00,Wunderground v.1.15,2013-06-25 14:05:00,
2013-06-25 10:46:00,87.1,74.4,30.15,SE,128,1.0,1.0,66,0.00,,,0.00,Wunderground v.1.15,2013-06-25 14:46:00,
2013-06-25 10:51:00,87.3,74.5,30.15,SE,126,0.0,1.0,66,0.00,,,0.00,Wunderground v.1.15,2013-06-25 14:51:00,
2013-06-25 10:56:00,87.6,74.4,30.15,SSE,150,1.0,1.0,65,0.00,,,0.00,Wunderground v.1.15,2013-06-25 14:56:00,
2013-06-25 11:01:00,87.8,73.6,30.15,SSE,152,1.0,5.0,63,0.00,,,0.00,Wunderground v.1.15,2013-06-25 15:01:00,
2013-06-25 11:06:00,88.1,74.8,30.15,SSE,154,0.0,5.0,65,0.00,,,0.00,Wunderground v.1.15,2013-06-25 15:06:00,
2013-06-25 11:11:00,88.5,74.8,30.15,SSE,150,0.0,2.0,64,0.00,,,0.00,Wunderground v.1.15,2013-06-25 15:11:00,
2013-06-25 11:17:00,88.5,73.8,30.15,ESE,114,1.0,4.0,62,0.00,,,0.00,Wunderground v.1.15,2013-06-25 15:17:00,
2013-06-25 11:22:00,88.4,73.7,30.15,East,94,1.0,1.0,62,0.00,,,0.00,Wunderground v.1.15,2013-06-25 15:22:00,
2013-06-25 11:28:00,88.4,74.2,30.15,East,94,1.0,1.0,63,0.00,,,0.00,Wunderground v.1.15,2013-06-25 15:28:00,
2013-06-25 11:33:00,88.8,73.6,30.16,East,101,0.0,0.0,61,0.00,,,0.00,Wunderground v.1.15,2013-06-25 15:33:00,
2013-06-25 11:38:00,89.3,72.1,30.16,ESE,105,0.0,1.0,57,0.00,,,0.00,Wunderground v.1.15,2013-06-25 15:38:00,
2013-06-25 11:43:00,89.6,71.8,30.15,East,98,0.0,1.0,56,0.00,,,0.00,Wunderground v.1.15,2013-06-25 15:43:00,
2013-06-25 11:49:00,89.9,73.1,30.15,East,101,0.0,4.0,58,0.00,,,0.00,Wunderground v.1.15,2013-06-25 15:49:00,
2013-06-25 11:54:00,90.0,72.7,30.15,East,99,1.0,2.0,57,0.00,,,0.00,Wunderground v.1.15,2013-06-25 15:54:00,
2013-06-25 12:00:00,90.6,73.8,30.15,East,101,1.0,1.0,58,0.00,,,0.00,Wunderground v.1.15,2013-06-25 16:00:00,
2013-06-25 12:05:00,90.4,73.1,30.15,ESE,106,1.0,4.0,57,0.00,,,0.00,Wunderground v.1.15,2013-06-25 16:05:00,
2013-06-25 12:10:00,90.3,71.9,30.15,ESE,114,1.0,1.0,55,0.00,,,0.00,Wunderground v.1.15,2013-06-25 16:10:00,
2013-06-25 12:16:00,90.6,72.8,30.15,SE,138,1.0,2.0,56,0.00,,,0.00,Wunderground v.1.15,2013-06-25 16:16:00,
2013-06-25 12:21:00,91.0,73.1,30.14,SE,128,1.0,1.0,56,0.00,,,0.00,Wunderground v.1.15,2013-06-25 16:21:00,
2013-06-25 12:26:00,91.5,73.6,30.14,ESE,117,0.0,1.0,56,0.00,,,0.00,Wunderground v.1.15,2013-06-25 16:26:00,
2013-06-25 12:31:00,91.3,73.9,30.14,South,188,1.0,7.0,57,0.00,,,0.00,Wunderground v.1.15,2013-06-25 16:31:00,
2013-06-25 12:37:00,90.9,74.1,30.14,SE,132,2.0,7.0,58,0.00,,,0.00,Wunderground v.1.15,2013-06-25 16:37:00,
2013-06-25 12:42:00,91.3,73.4,30.14,ESE,123,1.0,2.0,56,0.00,,,0.00,Wunderground v.1.15,2013-06-25 16:42:00,
2013-06-25 12:47:00,92.1,73.6,30.14,SE,127,1.0,2.0,55,0.00,,,0.00,Wunderground v.1.15,2013-06-25 16:47:00,
2013-06-25 12:53:00,92.0,72.4,30.13,SSE,167,0.0,3.0,53,0.00,,,0.00,Wunderground v.1.15,2013-06-25 16:53:00,
2013-06-25 12:59:00,91.8,72.8,30.13,East,97,1.0,3.0,54,0.00,,,0.00,Wunderground v.1.15,2013-06-25 16:59:00,
2013-06-25 13:05:00,91.7,72.7,30.13,East,99,1.0,4.0,54,0.00,,,0.00,Wunderground v.1.15,2013-06-25 17:05:00,
2013-06-25 13:11:00,91.9,72.9,30.13,ENE,78,1.0,1.0,54,0.00,,,0.00,Wunderground v.1.15,2013-06-25 17:11:00,
2013-06-25 13:16:00,92.2,72.6,30.13,SE,135,1.0,2.0,53,0.00,,,0.00,Wunderground v.1.15,2013-06-25 17:16:00,
2013-06-25 13:21:00,92.8,73.7,30.12,East,94,1.0,1.0,54,0.00,,,0.00,Wunderground v.1.15,2013-06-25 17:21:00,
2013-06-25 13:27:00,93.3,73.0,30.12,South,176,0.0,1.0,52,0.00,,,0.00,Wunderground v.1.15,2013-06-25 17:27:00,
2013-06-25 13:32:00,93.0,72.8,30.12,SE,125,0.0,3.0,52,0.00,,,0.00,Wunderground v.1.15,2013-06-25 17:32:00,
2013-06-25 13:38:00,93.1,72.9,30.12,East,95,1.0,4.0,52,0.00,,,0.00,Wunderground v.1.15,2013-06-25 17:38:00,
2013-06-25 13:43:00,93.1,73.4,30.12,South,173,1.0,3.0,53,0.00,,,0.00,Wunderground v.1.15,2013-06-25 17:43:00,
2013-06-25 13:48:00,92.6,73.0,30.12,ESE,119,1.0,3.0,53,0.00,,,0.00,Wunderground v.1.15,2013-06-25 17:48:00,
2013-06-25 13:53:00,92.8,72.0,30.11,SSW,192,1.0,6.0,51,0.00,,,0.00,Wunderground v.1.15,2013-06-25 17:53:00,
2013-06-25 13:59:00,92.7,73.1,30.11,SE,134,2.0,6.0,53,0.00,,,0.00,Wunderground v.1.15,2013-06-25 17:59:00,
2013-06-25 14:04:00,93.1,72.9,30.11,SE,129,1.0,5.0,52,0.00,,,0.00,Wunderground v.1.15,2013-06-25 18:04:00,
2013-06-25 14:09:00,93.4,72.6,30.11,SE,131,1.0,1.0,51,0.00,,,0.00,Wunderground v.1.15,2013-06-25 18:09:00,
2013-06-25 14:15:00,94.1,73.2,30.10,SSE,163,0.0,1.0,51,0.00,,,0.00,Wunderground v.1.15,2013-06-25 18:15:00,
2013-06-25 14:20:00,93.9,72.4,30.10,SSE,154,1.0,1.0,50,0.00,,,0.00,Wunderground v.1.15,2013-06-25 18:20:00,
2013-06-25 14:25:00,93.9,72.4,30.10,South,170,1.0,4.0,50,0.00,,,0.00,Wunderground v.1.15,2013-06-25 18:25:00,
2013-06-25 14:31:00,93.7,72.3,30.10,SSE,153,1.0,1.0,50,0.00,,,0.00,Wunderground v.1.15,2013-06-25 18:31:00,
2013-06-25 14:36:00,93.7,71.0,30.10,SE,132,1.0,1.0,48,0.00,,,0.00,Wunderground v.1.15,2013-06-25 18:36:00,
2013-06-25 14:41:00,94.2,71.5,30.10,ESE,103,0.0,0.0,48,0.00,,,0.00,Wunderground v.1.15,2013-06-25 18:41:00,
2013-06-25 14:46:00,94.7,72.6,30.10,NE,45,0.0,0.0,49,0.00,,,0.00,Wunderground v.1.15,2013-06-25 18:46:00,
2013-06-25 14:52:00,94.6,72.5,30.10,SE,130,0.0,1.0,49,0.00,,,0.00,Wunderground v.1.15,2013-06-25 18:52:00,
2013-06-25 14:58:00,94.3,71.6,30.10,East,88,0.0,1.0,48,0.00,,,0.00,Wunderground v.1.15,2013-06-25 18:58:00,
2013-06-25 15:03:00,94.0,72.5,30.10,East,94,0.0,6.0,50,0.00,,,0.00,Wunderground v.1.15,2013-06-25 19:03:00,
2013-06-25 15:09:00,93.8,72.3,30.09,North,9,0.0,6.0,50,0.00,,,0.00,Wunderground v.1.15,2013-06-25 19:09:00,
2013-06-25 15:14:00,94.2,72.1,30.09,East,90,0.0,0.0,49,0.00,,,0.00,Wunderground v.1.15,2013-06-25 19:14:00,
2013-06-25 15:19:00,94.5,72.4,30.09,NNE,30,0.0,0.0,49,0.00,,,0.00,Wunderground v.1.15,2013-06-25 19:19:00,
2013-06-25 15:25:00,95.0,72.8,30.09,NE,53,0.0,0.0,49,0.00,,,0.00,Wunderground v.1.15,2013-06-25 19:25:00,
2013-06-25 15:30:00,94.7,71.3,30.08,ENE,75,0.0,0.0,47,0.00,,,0.00,Wunderground v.1.15,2013-06-25 19:30:00,
2013-06-25 15:35:00,94.6,71.9,30.08,NE,42,0.0,2.0,48,0.00,,,0.00,Wunderground v.1.15,2013-06-25 19:35:00,
2013-06-25 15:41:00,94.8,72.0,30.08,ESE,113,1.0,1.0,48,0.00,,,0.00,Wunderground v.1.15,2013-06-25 19:41:00,
2013-06-25 15:47:00,95.0,71.6,30.08,North,355,1.0,2.0,47,0.00,,,0.00,Wunderground v.1.15,2013-06-25 19:47:00,
2013-06-25 15:52:00,95.2,71.2,30.08,NE,42,0.0,1.0,46,0.00,,,0.00,Wunderground v.1.15,2013-06-25 19:52:00,
2013-06-25 15:58:00,95.2,71.8,30.07,East,86,0.0,3.0,47,0.00,,,0.00,Wunderground v.1.15,2013-06-25 19:58:00,
2013-06-25 16:03:00,94.9,70.9,30.07,South,178,0.0,3.0,46,0.00,,,0.00,Wunderground v.1.15,2013-06-25 20:03:00,
2013-06-25 16:09:00,95.5,70.8,30.06,South,178,0.0,0.0,45,0.00,,,0.00,Wunderground v.1.15,2013-06-25 20:09:00,
2013-06-25 16:15:00,95.8,70.4,30.06,NNE,24,0.0,2.0,44,0.00,,,0.00,Wunderground v.1.15,2013-06-25 20:15:00,
2013-06-25 16:20:00,95.1,69.8,30.06,NE,38,0.0,2.0,44,0.00,,,0.00,Wunderground v.1.15,2013-06-25 20:20:00,
2013-06-25 16:26:00,95.4,70.0,30.05,NE,41,0.0,5.0,44,0.00,,,0.00,Wunderground v.1.15,2013-06-25 20:26:00,
2013-06-25 16:31:00,95.6,68.8,30.05,ESE,122,0.0,0.0,42,0.00,,,0.00,Wunderground v.1.15,2013-06-25 20:31:00,
2013-06-25 16:36:00,95.8,69.7,30.05,East,86,0.0,0.0,43,0.00,,,0.00,Wunderground v.1.15,2013-06-25 20:36:00,
2013-06-25 16:42:00,95.9,69.8,30.04,East,82,0.0,0.0,43,0.00,,,0.00,Wunderground v.1.15,2013-06-25 20:42:00,
2013-06-25 16:47:00,95.8,69.7,30.04,East,92,0.0,2.0,43,0.00,,,0.00,Wunderground v.1.15,2013-06-25 20:47:00,
2013-06-25 16:52:00,95.7,69.6,30.04,East,93,0.0,0.0,43,0.00,,,0.00,Wunderground v.1.15,2013-06-25 20:52:00,
2013-06-25 16:58:00,96.1,70.0,30.04,East,91,0.0,1.0,43,0.00,,,0.00,Wunderground v.1.15,2013-06-25 20:58:00,
2013-06-25 17:03:00,95.8,69.7,30.04,NNW,348,0.0,4.0,43,0.00,,,0.00,Wunderground v.1.15,2013-06-25 21:03:00,
2013-06-25 17:08:00,95.9,70.5,30.04,NNE,13,0.0,4.0,44,0.00,,,0.00,Wunderground v.1.15,2013-06-25 21:08:00,
2013-06-25 17:14:00,95.6,69.5,30.03,NNE,13,0.0,0.0,43,0.00,,,0.00,Wunderground v.1.15,2013-06-25 21:14:00,
2013-06-25 17:19:00,95.3,69.9,30.03,ESE,105,0.0,0.0,44,0.00,,,0.00,Wunderground v.1.15,2013-06-25 21:19:00,
2013-06-25 17:25:00,95.2,71.2,30.03,ENE,66,0.0,0.0,46,0.00,,,0.00,Wunderground v.1.15,2013-06-25 21:25:00,
2013-06-25 17:30:00,95.2,70.5,30.03,ENE,70,0.0,0.0,45,0.00,,,0.00,Wunderground v.1.15,2013-06-25 21:30:00,
2013-06-25 17:35:00,95.1,69.8,30.03,ENE,70,0.0,0.0,44,0.00,,,0.00,Wunderground v.1.15,2013-06-25 21:35:00,
2013-06-25 17:41:00,94.9,71.5,30.03,NW,317,0.0,0.0,47,0.00,,,0.00,Wunderground v.1.15,2013-06-25 21:41:00,
2013-06-25 17:46:00,94.4,70.4,30.03,NW,321,0.0,1.0,46,0.00,,,0.00,Wunderground v.1.15,2013-06-25 21:46:00,
2013-06-25 17:52:00,93.6,69.7,30.03,NNW,327,0.0,0.0,46,0.00,,,0.00,Wunderground v.1.15,2013-06-25 21:52:00,
2013-06-25 17:57:00,93.4,70.2,30.03,NNW,327,0.0,0.0,47,0.00,,,0.00,Wunderground v.1.15,2013-06-25 21:57:00,
2013-06-25 18:02:00,93.5,70.9,30.03,NNW,333,0.0,2.0,48,0.00,,,0.00,Wunderground v.1.15,2013-06-25 22:02:00,
2013-06-25 18:08:00,93.4,72.6,30.04,NNW,333,0.0,2.0,51,0.00,,,0.00,Wunderground v.1.15,2013-06-25 22:08:00,
2013-06-25 18:13:00,93.2,75.2,30.04,NNW,337,0.0,0.0,56,0.00,,,0.00,Wunderground v.1.15,2013-06-25 22:13:00,
2013-06-25 18:18:00,92.4,76.0,30.04,NNW,335,0.0,3.0,59,0.00,,,0.00,Wunderground v.1.15,2013-06-25 22:18:00,
2013-06-25 18:24:00,91.3,75.5,30.04,North,9,1.0,5.0,60,0.00,,,0.00,Wunderground v.1.15,2013-06-25 22:24:00,
2013-06-25 18:29:00,90.4,76.1,30.04,WNW,290,3.0,3.0,63,0.00,,,0.00,Wunderground v.1.15,2013-06-25 22:29:00,
2013-06-25 18:34:00,89.9,75.6,30.04,WNW,298,2.0,5.0,63,0.00,,,0.00,Wunderground v.1.15,2013-06-25 22:34:00,
2013-06-25 18:40:00,89.8,75.5,30.04,NW,313,2.0,2.0,63,0.00,,,0.00,Wunderground v.1.15,2013-06-25 22:40:00,
2013-06-25 18:45:00,89.8,75.5,30.04,NW,315,1.0,2.0,63,0.00,,,0.00,Wunderground v.1.15,2013-06-25 22:45:00,
2013-06-25 18:50:00,90.0,76.2,30.04,NW,318,1.0,1.0,64,0.00,,,0.00,Wunderground v.1.15,2013-06-25 22:50:00,
2013-06-25 18:56:00,89.6,75.3,30.05,NW,313,1.0,3.0,63,0.00,,,0.00,Wunderground v.1.15,2013-06-25 22:56:00,
2013-06-25 19:01:00,89.1,74.9,30.05,WNW,291,1.0,3.0,63,0.00,,,0.00,Wunderground v.1.15,2013-06-25 23:01:00,
2013-06-25 19:07:00,89.2,75.0,30.05,NW,322,1.0,6.0,63,0.00,,,0.00,Wunderground v.1.15,2013-06-25 23:07:00,
2013-06-25 19:13:00,89.2,75.0,30.05,NW,311,1.0,1.0,63,0.00,,,0.00,Wunderground v.1.15,2013-06-25 23:13:00,
2013-06-25 19:18:00,88.9,74.7,30.05,NW,305,1.0,5.0,63,0.00,,,0.00,Wunderground v.1.15,2013-06-25 23:18:00,
2013-06-25 19:24:00,88.4,74.2,30.05,NW,326,1.0,9.0,63,0.00,,,0.00,Wunderground v.1.15,2013-06-25 23:24:00,
2013-06-25 19:29:00,88.4,74.7,30.05,NW,313,1.0,1.0,64,0.00,,,0.00,Wunderground v.1.15,2013-06-25 23:29:00,
2013-06-25 19:34:00,88.5,74.3,30.05,NW,311,0.0,1.0,63,0.00,,,0.00,Wunderground v.1.15,2013-06-25 23:34:00,
2013-06-25 19:40:00,88.4,74.2,30.05,NW,315,1.0,1.0,63,0.00,,,0.00,Wunderground v.1.15,2013-06-25 23:40:00,
2013-06-25 19:45:00,88.1,74.4,30.05,WNW,303,1.0,3.0,64,0.00,,,0.00,Wunderground v.1.15,2013-06-25 23:45:00,
2013-06-25 19:50:00,88.1,74.8,30.05,NW,304,0.0,0.0,65,0.00,,,0.00,Wunderground v.1.15,2013-06-25 23:50:00,
2013-06-25 19:56:00,88.0,74.8,30.05,NW,311,0.0,5.0,65,0.00,,,0.00,Wunderground v.1.15,2013-06-25 23:56:00,
2013-06-25 20:01:00,87.7,74.9,30.05,NNW,327,0.0,4.0,66,0.00,,,0.00,Wunderground v.1.15,2013-06-26 00:01:00,
2013-06-25 20:06:00,87.2,74.9,30.05,NNE,14,1.0,7.0,67,0.00,,,0.00,Wunderground v.1.15,2013-06-26 00:06:00,
2013-06-25 20:12:00,86.8,75.0,30.05,NNW,331,1.0,1.0,68,0.00,,,0.00,Wunderground v.1.15,2013-06-26 00:12:00,
2013-06-25 20:17:00,86.6,74.8,30.05,NNW,330,0.0,1.0,68,0.00,,,0.00,Wunderground v.1.15,2013-06-26 00:17:00,
2013-06-25 20:22:00,86.4,74.6,30.05,NNW,342,0.0,0.0,68,0.00,,,0.00,Wunderground v.1.15,2013-06-26 00:22:00,
2013-06-25 20:28:00,86.1,74.7,30.04,NW,319,0.0,0.0,69,0.00,,,0.00,Wunderground v.1.15,2013-06-26 00:28:00,
2013-06-25 20:33:00,85.9,74.5,30.04,NNW,334,0.0,0.0,69,0.00,,,0.00,Wunderground v.1.15,2013-06-26 00:33:00,
2013-06-25 20:38:00,85.8,74.9,30.03,NNW,333,0.0,4.0,70,0.00,,,0.00,Wunderground v.1.15,2013-06-26 00:38:00,
2013-06-25 20:44:00,85.7,74.8,30.04,NNW,330,0.0,0.0,70,0.00,,,0.00,Wunderground v.1.15,2013-06-26 00:44:00,
2013-06-25 20:50:00,85.5,74.6,30.06,NNW,328,0.0,0.0,70,0.00,,,0.00,Wunderground v.1.15,2013-06-26 00:50:00,
2013-06-25 20:55:00,85.4,74.5,30.07,NNW,333,0.0,0.0,70,0.00,,,0.00,Wunderground v.1.15,2013-06-26 00:55:00,
2013-06-25 21:01:00,85.5,74.2,30.08,ESE,104,0.0,7.0,69,0.00,,,0.00,Wunderground v.1.15,2013-06-26 01:01:00,
2013-06-25 21:06:00,82.2,72.7,30.09,South,173,4.0,18.0,73,6.13,,,0.28,Wunderground v.1.15,2013-06-26 01:06:00,
2013-06-25 21:11:00,75.4,68.8,30.10,SW,221,12.0,16.0,80,2.52,,,0.89,Wunderground v.1.15,2013-06-26 01:11:00,
2013-06-25 21:17:00,73.8,68.7,30.09,SSW,211,6.0,16.0,84,2.45,,,1.15,Wunderground v.1.15,2013-06-26 01:17:00,
2013-06-25 21:23:00,73.4,70.0,30.09,SW,222,0.0,3.0,89,1.55,,,1.31,Wunderground v.1.15,2013-06-26 01:23:00,
2013-06-25 21:28:00,72.8,69.4,30.09,NW,311,0.0,3.0,89,0.79,,,1.41,Wunderground v.1.15,2013-06-26 01:28:00,
2013-06-25 21:35:00,72.8,70.0,30.10,NW,311,0.0,0.0,91,0.78,,,1.49,Wunderground v.1.15,2013-06-26 01:35:00,
2013-06-25 21:40:00,73.0,70.9,30.10,NW,311,0.0,0.0,93,0.41,,,1.53,Wunderground v.1.15,2013-06-26 01:40:00,
2013-06-25 21:46:00,73.2,71.1,30.10,NW,311,0.0,0.0,93,0.25,,,1.55,Wunderground v.1.15,2013-06-26 01:46:00,
2013-06-25 21:51:00,73.8,72.0,30.10,SSE,153,0.0,0.0,94,0.13,,,1.56,Wunderground v.1.15,2013-06-26 01:51:00,
2013-06-25 21:57:00,74.3,72.5,30.11,SSW,198,0.0,3.0,94,0.10,,,1.57,Wunderground v.1.15,2013-06-26 01:57:00,
2013-06-25 22:02:00,74.8,73.0,30.10,South,191,1.0,2.0,94,0.25,,,1.59,Wunderground v.1.15,2013-06-26 02:02:00,
2013-06-25 22:08:00,75.2,73.4,30.11,SW,216,1.0,3.0,94,0.12,,,1.60,Wunderground v.1.15,2013-06-26 02:08:00,
2013-06-25 22:13:00,75.3,73.5,30.10,SSW,210,0.0,1.0,94,0.09,,,1.60,Wunderground v.1.15,2013-06-26 02:13:00,
2013-06-25 22:19:00,75.4,73.6,30.10,SSW,210,0.0,1.0,94,0.05,,,1.60,Wunderground v.1.15,2013-06-26 02:19:00,
2013-06-25 22:24:00,75.5,73.7,30.10,SSW,207,0.0,0.0,94,1.26,,,1.64,Wunderground v.1.15,2013-06-26 02:24:00,
2013-06-25 22:30:00,75.6,73.8,30.09,SSW,205,0.0,0.0,94,0.23,,,1.68,Wunderground v.1.15,2013-06-26 02:30:00,
2013-06-25 22:35:00,75.6,73.8,30.09,SSW,205,0.0,0.0,94,0.07,,,1.68,Wunderground v.1.15,2013-06-26 02:35:00,
2013-06-25 22:41:00,75.6,73.8,30.10,SSW,210,0.0,0.0,94,0.04,,,1.68,Wunderground v.1.15,2013-06-26 02:41:00,
2013-06-25 22:46:00,75.6,74.1,30.09,SSW,210,0.0,0.0,95,0.00,,,1.68,Wunderground v.1.15,2013-06-26 02:46:00,
2013-06-25 22:52:00,75.7,74.2,30.09,SSW,210,0.0,0.0,95,0.00,,,1.68,Wunderground v.1.15,2013-06-26 02:52:00,
2013-06-25 22:57:00,75.6,74.1,30.09,SSW,210,0.0,0.0,95,0.00,,,1.68,Wunderground v.1.15,2013-06-26 02:57:00,
2013-06-25 23:03:00,75.7,74.2,30.09,SSW,210,0.0,7.0,95,0.00,,,1.68,Wunderground v.1.15,2013-06-26 03:03:00,
2013-06-25 23:08:00,75.6,74.1,30.09,SSW,210,0.0,7.0,95,0.00,,,1.68,Wunderground v.1.15,2013-06-26 03:08:00,
2013-06-25 23:14:00,75.6,74.1,30.09,SSW,210,0.0,0.0,95,0.00,,,1.68,Wunderground v.1.15,2013-06-26 03:14:00,
2013-06-25 23:20:00,75.7,74.2,30.09,SSW,210,0.0,0.0,95,0.00,,,1.68,Wunderground v.1.15,2013-06-26 03:20:00,
2013-06-25 23:25:00,75.6,74.1,30.08,SSW,210,0.0,0.0,95,0.00,,,1.68,Wunderground v.1.15,2013-06-26 03:25:00,
2013-06-25 23:31:00,75.6,74.1,30.08,SSW,210,0.0,0.0,95,0.00,,,1.68,Wunderground v.1.15,2013-06-26 03:31:00,
2013-06-25 23:36:00,75.6,74.1,30.08,SSW,210,0.0,0.0,95,0.00,,,1.68,Wunderground v.1.15,2013-06-26 03:36:00,
2013-06-25 23:42:00,75.6,74.1,30.08,SSW,210,0.0,0.0,95,0.00,,,1.68,Wunderground v.1.15,2013-06-26 03:42:00,
2013-06-25 23:47:00,75.6,74.1,30.08,SSW,210,0.0,0.0,95,0.00,,,1.68,Wunderground v.1.15,2013-06-26 03:47:00,
2013-06-25 23:53:00,75.7,74.2,30.08,SSW,211,0.0,0.0,95,0.00,,,1.68,Wunderground v.1.15,2013-06-26 03:53:00,
2013-06-25 23:58:00,75.6,74.1,30.08,SSW,211,0.0,0.0,95,0.00,,,1.68,Wunderground v.1.15,2013-06-26 03:58:00,